DW3795 Weather Reports


Display with metric or nautical units.
time (UTC)temp
F
wind
direction
speed
MPH
gust
MPH
rain 1hr
in
rain 24hr
in
rain mn
in
humidity
%
barometer
mb
20260906090054 73 186 0.0 2.0 0.00 0.00 0.00 91 1011.5
20260906084553 73 120 0.0 0.0 0.00 0.00 0.00 91 1011.4
20260906083053 73 120 0.0 0.0 0.00 0.00 0.00 91 1011.3
20260906081554 73 121 0.0 0.0 0.00 0.00 0.00 91 1011.6
20260906080052 74 121 0.0 0.0 0.00 0.00 0.00 92 1011.4
20260906074548 74 119 0.0 0.0 0.00 0.00 0.00 92 1011.1
20260906073047 74 119 0.0 0.0 0.00 0.00 0.00 92 1011.1
20260906071547 74 119 0.0 0.0 0.00 0.00 0.00 92 1011.3
20260906070045 74 121 0.0 0.0 0.00 0.00 0.00 92 1011.2
20260906064545 74 121 0.0 0.0 0.00 0.00 0.00 92 1011.1
20260906063044 74 121 0.0 0.0 0.00 0.00 0.00 92 1011.3
20260906061543 74 121 0.0 0.0 0.00 0.00 0.00 92 1011.1
20260906060043 74 121 0.0 0.0 0.00 0.00 0.00 91 1011.2
20260906054541 74 121 0.0 0.0 0.00 0.00 0.00 91 1011.3
20260906053039 74 121 0.0 0.0 0.00 0.00 0.00 90 1011.3
20260906051538 74 121 0.0 0.0 0.00 0.00 0.00 90 1011.1
20260906050037 75 121 0.0 0.0 0.00 0.00 0.00 90 1011.3
20260906044541 75 121 0.0 0.0 0.00 0.00 0.00 90 1011.2
20260906043042 75 121 0.0 0.0 0.00 0.00 0.00 90 1011.1
20260906041532 75 121 0.0 0.0 0.00 0.00 0.00 89 1011.4
20260906040034 75 121 0.0 0.0 0.00 0.00 0.00 88 1011.5
20260906034531 75 121 0.0 0.0 0.00 0.00 0.00 88 1011.4
20260906033033 76 121 0.0 0.0 0.00 0.00 0.00 87 1011.3
20260906031543 76 121 0.0 0.0 0.00 0.00 0.00 86 1011.4
20260906030028 77 122 0.0 0.0 0.00 0.00 0.00 84 1011.4
20260906024528 78 123 0.0 0.0 0.00 0.00 0.00 84 1011.4
20260906023028 78 123 0.0 0.0 0.00 0.00 0.00 83 1011.1
20260906021527 79 124 0.0 0.0 0.00 0.00 0.00 82 1011.1
20260906020031 79 123 0.0 0.0 0.00 0.00 0.00 82 1010.9
20260906014530 79 123 0.0 3.0 0.00 0.00 0.00 81 1010.9
20260906013025 80 43 0.0 2.0 0.00 0.00 0.00 82 1010.8
20260906011525 80 41 0.0 1.0 0.00 0.00 0.00 81 1010.7
20260906010024 81 41 0.0 1.0 0.00 0.00 0.00 79 1010.5
20260906004524 81 41 0.0 1.0 0.00 0.00 0.00 77 1010.3
20260906003027 82 42 0.0 1.0 0.00 0.00 0.00 75 1010.2
20260906001522 83 42 0.0 1.0 0.00 0.00 0.00 73 1010.1
20260906000023 85 42 0.0 1.0 0.00 0.00 0.00 71 1009.9
20260905234522 86 43 0.0 2.0 0.00 0.00 0.00 68 1009.7
20260905233029 87 15 0.0 0.0 0.00 0.00 0.00 67 1009.1
20260905231521 88 15 0.0 3.0 0.00 0.00 0.00 66 1008.9
20260905230020 88 183 0.0 2.0 0.00 0.00 0.00 64 1009.0
20260905224520 89 184 1.0 3.0 0.00 0.00 0.00 62 1008.9
20260905223032 90 184 0.0 4.0 0.00 0.00 0.00 61 1009.0
20260905221535 90 85 0.0 4.0 0.00 0.00 0.00 59 1008.9
20260905220018 91 110 0.0 5.0 0.00 0.00 0.00 60 1008.9
20260905214518 91 157 1.0 7.0 0.00 0.00 0.00 58 1008.9
20260905213017 92 134 2.0 7.0 0.00 0.00 0.00 59 1009.1
20260905211535 91 221 2.0 4.0 0.00 0.00 0.00 59 1009.0
20260905210015 92 73 1.0 7.0 0.00 0.00 0.00 59 1008.8
20260905204514 92 150 1.0 11.0 0.00 0.00 0.00 61 1008.7
20260905203014 92 120 1.0 10.0 0.00 0.00 0.00 60 1008.7
20260905201514 93 177 2.0 7.0 0.00 0.00 0.00 56 1009.0
20260905200015 95 15 0.0 2.0 0.00 0.00 0.00 53 1008.8
20260905194514 95 15 0.0 2.0 0.00 0.00 0.00 53 1008.7
20260905193011 94 319 0.0 2.0 0.00 0.00 0.00 54 1008.8
20260905191510 94 339 0.0 2.0 0.00 0.00 0.00 55 1009.0
20260905190009 94 340 1.0 3.0 0.00 0.00 0.00 52 1008.9
20260905184507 95 331 1.0 2.0 0.00 0.00 0.00 53 1009.2
20260905183006 96 312 1.0 7.0 0.00 0.00 0.00 52 1009.4
20260905181505 97 307 1.0 4.0 0.00 0.00 0.00 51 1009.3
20260905180005 97 195 1.0 7.0 0.00 0.00 0.00 53 1009.4
20260905174501 97 330 3.0 9.0 0.00 0.00 0.00 52 1009.8
20260905173100 96 273 3.0 10.0 0.00 0.00 0.00 54 1010.1
20260905171606 96 337 2.0 6.0 0.00 0.00 0.00 56 1010.4
20260905170059 97 339 3.0 8.0 0.00 0.00 0.00 52 1010.7
20260905164556 99 355 1.0 6.0 0.00 0.00 0.00 52 1010.6
20260905163052 97 269 2.0 10.0 0.00 0.00 0.00 54 1010.7
20260905161548 95 352 1.0 6.0 0.00 0.00 0.00 56 1010.8
20260905160051 94 318 1.0 8.0 0.00 0.00 0.00 58 1011.2
20260905154553 95 231 1.0 3.0 0.00 0.00 0.00 57 1011.4
20260905153044 95 246 2.0 6.0 0.00 0.00 0.00 59 1011.3
20260905151541 93 312 2.0 7.0 0.00 0.00 0.00 59 1011.5
20260905150035 92 15 2.0 7.0 0.00 0.00 0.00 61 1011.7
20260905144539 90 55 2.0 5.0 0.00 0.00 0.00 62 1011.5
20260905143026 88 325 0.0 4.0 0.00 0.00 0.00 67 1011.5
20260905141524 87 231 1.0 4.0 0.00 0.00 0.00 68 1011.8
20260905140018 85 324 1.0 5.0 0.00 0.00 0.00 73 1011.7
20260905134512 82 173 1.0 5.0 0.00 0.00 0.00 76 1011.5
20260905133009 80 260 0.0 1.0 0.00 0.00 0.00 82 1011.5
20260905131505 78 191 1.0 4.0 0.00 0.00 0.00 87 1011.4
20260905130100 76 182 0.0 2.0 0.00 0.00 0.00 90 1011.5
20260905124559 74 182 1.0 5.0 0.00 0.00 0.00 92 1011.5
20260905123100 73 188 0.0 3.0 0.00 0.00 0.00 93 1011.7
20260905121556 72 116 0.0 2.0 0.00 0.00 0.00 94 1011.5
20260905120054 71 105 1.0 2.0 0.00 0.00 0.00 94 1011.6
20260905114607 71 105 0.0 1.0 0.00 0.00 0.00 93 1011.5
20260905113051 70 105 0.0 2.0 0.00 0.00 0.00 93 1011.4
20260905111557 70 105 0.0 0.0 0.00 0.00 0.00 93 1011.2
20260905110046 70 105 0.0 0.0 0.00 0.00 0.00 93 1011.3
20260905104550 70 105 0.0 0.0 0.00 0.00 0.00 92 1011.1
20260905103047 70 105 0.0 0.0 0.00 0.00 0.00 92 1011.1
20260905101543 71 105 0.0 0.0 0.00 0.00 0.00 92 1011.0
20260905100041 71 105 0.0 0.0 0.00 0.00 0.00 92 1011.0
20260905094557 71 105 0.0 0.0 0.00 0.00 0.00 91 1011.0
20260905093043 71 105 0.0 1.0 0.00 0.00 0.00 91 1011.1
20260905091536 72 105 0.0 0.0 0.00 0.00 0.00 91 1011.3